User: anonymous   Login
Location: Unspecified
(0.0000°N, 0.0000°E)
Time: 14:44:28
(UTC+00:00)
Language:

MOZHAYETS - Orbit

View from above orbital plane
View from above orbital plane
View from above satellite
View from above satellite

Ground track
Ground track

The orbit data is extracted from the following two-line orbital elements,

1 27560U 02054B   17202.97042199 +.00000046 +00000-0 +20415-4 0  9990
2 27560 098.2124 336.9556 0041070 005.7444 096.6436 14.57626721778110
Epoch (UTC): 21 July 2017 23:17:24
Eccentricity: 0.0041070
inclination: 98.2124°
perigee height: 672 km
apogee height: 730 km
right ascension of ascending node: 336.9556°
argument of perigee: 5.7444°
revolutions per day: 14.57626721
mean anomaly at epoch: 96.6436°
orbit number at epoch: 77811

The dashed part of the orbit path shows where the satellite is in the earth's shadow,  

DLR